{"data":{"norad_id":56340,"epoch":"2026-05-25T04:10:40.767744Z","epoch_age_seconds":63933,"freshness":"FRESH","line1":"1 56340U 23058Z   26145.17408296 -.00010267  00000+0 -70758-3 0  9998","line2":"2 56340  97.4468 146.2123 0001632  71.0223 289.1181 15.05698730169701","mean_motion":15.0569873,"eccentricity":0.0001632,"inclination_deg":97.4468,"raan_deg":146.2123,"arg_perigee_deg":71.0223,"mean_anomaly_deg":289.1181,"bstar":-0.00070758,"rev_number":16970,"period_min":95.636661658073,"perigee_km":548.23111584141,"apogee_km":550.49225141175,"semimajor_km":6927.4986836266,"source":"CELESTRAK","updated_at":"2026-05-25T13:38:18.004660Z"}}